User: anonymous   Login
Location: Unspecified
(0.0000°N, 0.0000°E)
Time: 13:57:50
(UTC+02:00)
Language:

CZ-2C R/B - Orbit

View from above orbital plane
View from above orbital plane
View from above satellite
View from above satellite

Ground track
Ground track

The orbit data is extracted from the following two-line orbital elements,

1 28480U 04046B   15147.83806433  .00000069  00000-0  42277-4 0  9990
2 28480 098.1373 283.2126 0140999 282.9717 232.6256 14.25500950547189
Epoch (UTC): 27 May 2015 20:06:48
Eccentricity: 0.0140999
inclination: 98.1373°
perigee height: 705 km
apogee height: 908 km
right ascension of ascending node: 283.2126°
argument of perigee: 282.9717°
revolutions per day: 14.25500950
mean anomaly at epoch: 232.6256°
orbit number at epoch: 54718

The dashed part of the orbit path shows where the satellite is in the earth's shadow,  

DLR